Prescott, AZ

9:28 AM MST on September 18, 2019 (GMT -0700)
Love

Weather History for KPRC - June, 2019

Change the Weather History Date:

Wednesday, June 12, 2019

  Actual Average Record
Temperature  
Mean Temperature 76 °F 70 °F  
Max Temperature 94 °F 86 °F 98 °F (1974)
Min Temperature 57 °F 54 °F 40 °F (1976)
Degree Days  
Heating Degree Days 0    
Month to date heating degree days 2  
Since 1 July heating degree days 4330  
Cooling Degree Days 10    
Month to date cooling degree days 53  
Year to date cooling degree days 54  
Growing Degree Days 26 (Base 50)    
Moisture  
Dew Point 27 °F    
Average Humidity 19    
Maximum Humidity 37    
Minimum Humidity 7    
Precipitation  
Precipitation 0.00 in 0.01 in 0.87 in (1955)
Month to date precipitation 0.11 0.10  
Year to date precipitation 6.79 4.64  
Sea Level Pressure  
Sea Level Pressure 29.89 in    
Wind  
Wind Speed 6 mph ()    
Max Wind Speed 21 mph    
Max Gust Speed 27 mph    
Visibility 10.0 miles    
Events      
T = Trace of Precipitation, MM = Missing Value Source: Averaged Metar Reports

Daily Weather History Graph

Daily Weather History Graph

Search for Another Location

Airport or City:

Astronomy

Jun. 12, 2019 Rise Set
Actual Time 5:16 AM MST 7:43 PM MST
Civil Twilight 4:46 AM MST 8:12 PM MST
Nautical Twilight 4:10 AM MST 8:48 PM MST
Astronomical Twilight 3:30 AM MST 9:28 PM MST
Moon 3:07 PM MST (6/12) 2:18 AM MST (6/12)
Length of Visible Light 15h 25m
Length of Day
14h 27m
Waxing Gibbous, 77% of the Moon is Illuminated
Jun 12
Waxing Gibbous
Jun 17
Full
Jun 25
Last Quarter
Jul 2
New
Jul 9
First Quarter

Hourly Weather History & Observations

Time (MST) Temp. Dew Point Humidity Pressure Visibility Wind Dir Wind Speed Gust Speed Precip Events Conditions
12:53 AM 62.1 °F 32.0 °F 32% 29.95 in 10.0 mi South 4.6 mph - N/A   Clear
1:53 AM 62.1 °F 33.1 °F 34% 29.93 in 10.0 mi SSW 3.5 mph - N/A   Clear
2:53 AM 63.0 °F 28.9 °F 28% 29.92 in 10.0 mi South 10.4 mph - N/A   Clear
3:53 AM 61.0 °F 28.9 °F 30% 29.92 in 10.0 mi South 10.4 mph - N/A   Clear
4:53 AM 57.0 °F 30.9 °F 37% 29.94 in 10.0 mi South 8.1 mph - N/A   Clear
5:53 AM 57.9 °F 30.0 °F 35% 29.95 in 10.0 mi South 6.9 mph - N/A   Clear
6:53 AM 64.9 °F 35.1 °F 33% 29.95 in 10.0 mi South 5.8 mph - N/A   Clear
7:53 AM 75.0 °F 32.0 °F 21% 29.95 in 10.0 mi Calm Calm - N/A   Clear
8:53 AM 79.0 °F 27.0 °F 15% 29.94 in 10.0 mi Calm Calm - N/A   Clear
9:53 AM 84.0 °F 27.0 °F 13% 29.93 in 10.0 mi Calm Calm - N/A   Clear
10:53 AM 88.0 °F 24.1 °F 10% 29.93 in 10.0 mi South 4.6 mph - N/A   Clear
11:53 AM 90.0 °F 28.0 °F 11% 29.91 in 10.0 mi Variable 3.5 mph - N/A   Clear
12:53 PM 91.9 °F 26.1 °F 9% 29.90 in 10.0 mi South 9.2 mph - N/A   Clear
1:53 PM 91.0 °F 25.0 °F 9% 29.88 in 10.0 mi SW 10.4 mph 17.3 mph N/A   Clear
2:53 PM 93.0 °F 24.1 °F 8% 29.85 in 10.0 mi SW 10.4 mph 23.0 mph N/A   Clear
3:53 PM 93.0 °F 19.0 °F 7% 29.84 in 10.0 mi South 11.5 mph 23.0 mph N/A   Clear
4:53 PM 91.9 °F 19.0 °F 7% 29.84 in 10.0 mi West 10.4 mph 23.0 mph N/A   Clear
5:53 PM 91.0 °F 17.1 °F 7% 29.83 in 10.0 mi WSW 11.5 mph - N/A   Clear
6:53 PM 88.0 °F 16.0 °F 7% 29.82 in 10.0 mi WSW 9.2 mph - N/A   Clear
7:53 PM 81.0 °F 19.0 °F 10% 29.82 in 10.0 mi WSW 9.2 mph - N/A   Clear
8:53 PM 72.0 °F 27.0 °F 19% 29.84 in 10.0 mi SSW 6.9 mph - N/A   Clear
9:53 PM 70.0 °F 26.1 °F 19% 29.85 in 10.0 mi South 10.4 mph - N/A   Clear
10:53 PM 69.1 °F 28.0 °F 22% 29.84 in 10.0 mi South 8.1 mph - N/A   Clear
11:53 PM 64.0 °F 35.1 °F 34% 29.84 in 10.0 mi South 6.9 mph - N/A   Clear